Location: Decatur Area Astronomy Club
(40.0275°N, 88.7810°W)
Time: 23:46:51
(UTC-06:00)

Amateur Radio Satellites - All Passes

Search period start: 22 November 2014 23:16
Search period end: 23 November 2014 23:16
Location: Decatur Area Astronomy Club, 40.0275°N, 88.7810°W

Satellite Date Start Highest point End Downlink Frequencies (MHz)
Time Altitude Azimuth
ISS 22 Nov 23:23:59 23:26:14 17° 131° (SE) 23:28:29 145.825
ITUPSAT 1 22 Nov 23:27:48 23:31:05 19° 64° (ENE) 23:34:21 437.325
POPSAT HIP 1 22 Nov 23:28:44 23:32:41 39° 288° (WNW) 23:36:37 437.405
BUGSAT 1 22 Nov 23:34:01 23:37:52 40° 288° (WNW) 23:41:40 437.445
SWISSCUBE 22 Nov 23:39:23 23:43:19 26° 67° (ENE) 23:47:17 437.505
CUSAT 1 22 Nov 23:53:13 23:57:30 62° 80° (E) 00:03:18 437.405
TIGRISAT 22 Nov 23:59:52 00:02:25 15° 295° (WNW) 00:04:59 435.000
POLYITAN 1 23 Nov 00:00:54 00:03:50 19° 294° (WNW) 00:06:46 437.675
DANDE 23 Nov 00:03:29 00:07:37 65° 81° (E) 00:13:15 436.750
QB50P2 23 Nov 00:04:33 00:07:18 17° 294° (WNW) 00:10:03 145.880/145.840
BEESAT 23 Nov 00:10:28 00:15:04 49° 72° (ENE) 00:19:41 436.000
UNISAT 6 23 Nov 00:12:27 00:13:56 12° 297° (WNW) 00:15:26 437.425
DUCHIFAT 1 23 Nov 00:13:23 00:15:38 14° 296° (WNW) 00:17:52 145.980
SPROUT 23 Nov 00:18:01 00:21:26 23° 265° (W) 00:24:53 437.525
TISAT 1 23 Nov 00:19:44 00:22:44 19° 266° (W) 00:25:45 437.305
RS-15 23 Nov 00:26:31 00:37:17 49° 47° (NE) 00:48:26 29.354- 29.394
Oscar 19 23 Nov 00:34:31 00:38:32 22° 94° (E) 00:42:31 437.125/150
AUBIESAT-1 23 Nov 00:38:00 00:41:37 36° 258° (WSW) 00:45:33 437.475
M-CUBED/EXP-1 PRIME 23 Nov 00:40:57 00:44:24 30° 260° (W) 00:48:09 437.505
YUBILEINY 23 Nov 00:42:37 00:45:22 12° 74° (ENE) 00:48:07 435.215
ISS 23 Nov 00:59:25 01:02:37 49° 327° (NNW) 01:05:50 145.825
STARS 23 Nov 01:01:23 01:04:49 23° 67° (ENE) 01:08:15 437.465
ITUPSAT 1 23 Nov 01:03:56 01:08:35 48° 260° (W) 01:13:16 437.325
MaSat-1 23 Nov 01:04:57 01:07:14 56° 64° (ENE) 01:09:34 437.345
SWISSCUBE 23 Nov 01:16:44 01:21:02 33° 263° (W) 01:25:22 437.505
ITAMSAT 1 23 Nov 01:19:47 01:23:51 23° 94° (E) 01:27:52 435.822/435.867
Gurwin Techsat 1B 23 Nov 01:32:07 01:35:35 17° 92° (E) 01:39:02 435.225
KKS-1 23 Nov 01:33:29 01:37:56 75° 75° (ENE) 01:42:24 437.445
CUSAT 1 23 Nov 01:38:25 01:40:35 13° 268° (W) 01:42:58 437.405
DANDE 23 Nov 01:49:38 01:51:03 11° 268° (W) 01:52:35 436.750
BEESAT 23 Nov 01:50:04 01:53:10 17° 268° (W) 01:56:17 436.000
Oscar 19 23 Nov 02:13:10 02:18:00 42° 290° (WNW) 02:22:51 437.125/150
YUBILEINY 23 Nov 02:31:42 02:40:26 71° 93° (E) 02:49:10 435.215
STARS 23 Nov 02:37:10 02:41:07 32° 263° (W) 02:45:05 437.465
ISS 23 Nov 02:38:01 02:39:53 14° 346° (NNW) 02:41:46 145.825
AO-7 23 Nov 02:38:07 02:42:50 16° 90° (E) 02:47:32 29.400- 29.500
RS-15 23 Nov 02:39:02 02:49:46 53° 249° (WSW) 03:00:59 29.354- 29.394
HORYU 2 23 Nov 02:41:00 02:45:05 33° 98° (E) 02:49:09 437.375
ITAMSAT 1 23 Nov 02:58:37 03:03:28 41° 290° (WNW) 03:08:17 435.822/435.867
Gurwin Techsat 1B 23 Nov 03:10:41 03:15:53 56° 288° (WNW) 03:21:03 435.225
SO-50 23 Nov 03:37:46 03:41:45 32° 114° (ESE) 03:45:51 436.795
MOZHAYETS 4 23 Nov 03:50:23 03:54:51 55° 74° (ENE) 03:59:22
BEESAT 3 23 Nov 04:12:10 04:14:12 13° 41° (NE) 04:16:14 437.485
ISS 23 Nov 04:16:23 04:17:39 12° 7° (N) 04:18:56 145.825
HORYU 2 23 Nov 04:18:05 04:21:34 23° 293° (WNW) 04:25:02 437.375
BEESAT 2 23 Nov 04:24:27 04:27:00 15° 43° (NE) 04:29:32 435.950
AO-7 23 Nov 04:28:15 04:36:40 85° 108° (ESE) 04:45:03 29.400- 29.500
YUBILEINY 23 Nov 04:31:07 04:38:00 25° 293° (WNW) 04:44:55 435.215
STRAND 1 23 Nov 04:35:36 04:38:28 15° 61° (ENE) 04:41:20 437.568
PRISM 23 Nov 04:39:08 04:42:57 35° 70° (ENE) 04:46:49 437.425
JAS-2 23 Nov 04:39:40 04:46:27 43° 96° (E) 04:52:28 435.910
PCSat 23 Nov 04:41:38 04:46:42 38° 54° (NE) 04:51:44 145.827
AIST 2 23 Nov 04:44:23 04:46:33 14° 41° (NE) 04:48:42 435.215
O/OREOS (USA 219) 23 Nov 05:05:21 05:07:06 12° 98° (E) 05:08:51 437.305
Cubesat XI-IV 23 Nov 05:12:37 05:16:21 19° 93° (E) 05:20:02 437.490
SO-50 23 Nov 05:18:19 05:22:17 29° 312° (NW) 05:26:22 436.795
CUBESAT XI-V 23 Nov 05:22:29 05:26:50 38° 71° (ENE) 05:31:12 437.345
MOZHAYETS 4 23 Nov 05:30:05 05:32:25 14° 269° (W) 05:34:45
BEESAT 3 23 Nov 05:48:47 05:52:59 80° 240° (WSW) 05:57:07 437.485
ISS 23 Nov 05:52:18 05:55:11 27° 26° (NNE) 05:58:03 145.825
CUTE-I 23 Nov 05:53:57 05:59:04 46° 99° (E) 06:04:07 437.470
BEESAT 2 23 Nov 06:01:33 06:05:44 64° 241° (WSW) 06:09:50 435.950
STRAND 1 23 Nov 06:11:56 06:17:03 69° 258° (WSW) 06:22:12 437.568
PRISM 23 Nov 06:15:40 06:18:37 18° 266° (W) 06:21:35 437.425
AIST 1 23 Nov 06:20:47 06:24:39 30° 76° (ENE) 06:28:29
AIST 2 23 Nov 06:21:26 06:25:46 82° 240° (WSW) 06:30:00 435.215
AO-7 23 Nov 06:22:27 06:28:28 23° 307° (NW) 06:34:29 29.400- 29.500
JAS-2 23 Nov 06:24:52 06:31:17 35° 296° (WNW) 06:37:05 435.910
PCSat 23 Nov 06:25:19 06:29:57 30° 251° (WSW) 06:34:34 145.827
GONETS M04 23 Nov 06:30:58 06:34:48 14° 75° (ENE) 06:38:37
O/OREOS (USA 219) 23 Nov 06:41:30 06:45:56 59° 294° (WNW) 06:50:23 437.305
Cubesat XI-IV 23 Nov 06:51:33 06:56:43 52° 289° (WNW) 07:01:51 437.490
CUBESAT XI-V 23 Nov 07:00:48 07:04:22 21° 267° (W) 07:07:59 437.345
ISS 23 Nov 07:28:47 07:31:54 39° 223° (SW) 07:35:00 145.825
CUTE-I 23 Nov 07:34:44 07:38:48 23° 296° (WNW) 07:42:51 437.470
AIST 1 23 Nov 07:58:48 08:02:07 21° 272° (W) 08:05:25
CANX-2 23 Nov 08:04:05 08:07:26 22° 94° (E) 08:10:47 2200.000
AAUSAT CUBESAT 2 23 Nov 08:05:03 08:06:59 13° 91° (E) 08:08:54 437.432
DOVE 4 23 Nov 08:09:20 08:09:41 10° 90° (E) 08:10:02 437.250
COMPASS 1 23 Nov 08:17:04 08:20:14 20° 94° (E) 08:23:25 437.405
HO-68 23 Nov 08:18:57 08:25:38 40° 98° (E) 08:32:14 435.675
GONETS M04 23 Nov 08:21:15 08:30:00 77° 94° (E) 08:38:51
ANTELSAT 23 Nov 08:27:29 08:28:29 11° 62° (ENE) 08:29:30 437.575/2403.000
GOMX 1 23 Nov 08:34:00 08:37:36 28° 96° (E) 08:41:13 467.674
CUTE 1.7 & AOD 2 23 Nov 08:38:33 08:42:43 49° 99° (E) 08:46:53 437.475
BRITE-PL 23 Nov 08:46:22 08:50:27 55° 100° (E) 08:54:32 437.365/2234.400
POPSAT HIP 1 23 Nov 08:47:48 08:49:42 13° 64° (ENE) 08:51:36 437.405
BUGSAT 1 23 Nov 08:51:05 08:52:31 12° 63° (ENE) 08:53:56 437.445
UKube-1 23 Nov 08:52:01 08:55:07 19° 94° (E) 08:58:13 .
CUBEBUG 2 23 Nov 09:01:24 09:04:05 16° 93° (E) 09:06:47 437.445
Oscar 11 23 Nov 09:05:04 09:08:57 31° 97° (E) 09:12:49 145.826/435.025
CINEMA 3 23 Nov 09:05:33 09:09:12 29° 97° (E) 09:12:56 145.822/145.860
UWE-3 23 Nov 09:08:09 09:10:54 17° 93° (E) 09:13:40 435.000/436.395/437.385
SEEDS 23 Nov 09:15:34 09:19:49 71° 284° (WNW) 09:24:04 437.485
POLYITAN 1 23 Nov 09:17:28 09:21:04 27° 69° (ENE) 09:24:39 437.675
TIGRISAT 23 Nov 09:20:29 09:24:28 40° 72° (ENE) 09:28:27 435.000
QB50P2 23 Nov 09:20:39 09:24:21 29° 70° (ENE) 09:28:02 145.880/145.840
DX 1 23 Nov 09:23:36 09:27:47 44° 99° (E) 09:31:54 434.975-435.025
DUCHIFAT 1 23 Nov 09:28:33 09:32:25 35° 71° (ENE) 09:36:17 145.980
UNISAT 6 23 Nov 09:32:09 09:36:20 56° 74° (ENE) 09:40:31 437.425
AAUSAT CUBESAT 2 23 Nov 09:38:51 09:42:57 51° 286° (WNW) 09:47:03 437.432
CANX-2 23 Nov 09:39:38 09:43:23 30° 290° (WNW) 09:47:09 2200.000
VELOX 1 23 Nov 09:40:22 09:43:42 21° 94° (E) 09:47:01 145.980
DOVE 4 23 Nov 09:43:45 09:47:50 59° 285° (WNW) 09:52:00 437.250
NANOSAT C BR1 23 Nov 09:47:04 09:51:15 57° 74° (ENE) 09:55:26 145.865
ZACube-1 23 Nov 09:49:14 09:53:14 41° 99° (E) 09:57:17 437.345
COMPASS 1 23 Nov 09:52:14 09:56:01 32° 289° (WNW) 09:59:48 437.405
HUMSAT D 23 Nov 09:55:55 09:59:34 29° 97° (E) 10:03:14 437.325/437.525
QB50P1 23 Nov 09:56:27 10:00:42 74° 75° (ENE) 10:04:58 145.935-145.965
DELFI C3 23 Nov 09:59:33 10:03:40 70° 284° (WNW) 10:07:47 145.870
ANTELSAT 23 Nov 10:00:28 10:04:44 69° 258° (WSW) 10:09:00 437.575/2403.000
AISAT 23 Nov 10:04:04 10:08:12 38° 98° (E) 10:12:19 437.250
50 SAT 23 Nov 10:05:20 10:08:56 30° 97° (E) 10:12:33 437.505
HO-68 23 Nov 10:06:43 10:13:15 39° 296° (WNW) 10:19:44 435.675
GOMX 1 23 Nov 10:12:26 10:15:37 22° 292° (WNW) 10:18:50 467.674
CUTE 1.7 & AOD 2 23 Nov 10:15:52 10:18:14 15° 295° (WNW) 10:20:37 437.475
POPSAT HIP 1 23 Nov 10:20:55 10:25:07 58° 259° (W) 10:29:20 437.405
GONETS M04 23 Nov 10:21:13 10:27:46 23° 295° (WNW) 10:34:24
BUGSAT 1 23 Nov 10:23:14 10:27:28 65° 259° (WSW) 10:31:43 437.445
FUNcube-1 23 Nov 10:25:02 10:29:14 75° 284° (WNW) 10:33:31 145.935
BRITE-PL 23 Nov 10:27:02 10:28:31 12° 297° (WNW) 10:29:59 437.365/2234.400
UKube-1 23 Nov 10:27:25 10:31:24 36° 290° (WNW) 10:35:21 .
CUBEBUG 1 23 Nov 10:28:52 10:32:29 25° 95° (E) 10:36:03 437.445
CUBEBUG 2 23 Nov 10:37:01 10:40:57 39° 288° (WNW) 10:44:57 437.445
Oscar 11 23 Nov 10:41:34 10:44:57 23° 292° (WNW) 10:48:19 145.826/435.025
CINEMA 3 23 Nov 10:43:02 10:46:18 22° 291° (WNW) 10:49:37 145.822/145.860
UWE-3 23 Nov 10:43:40 10:47:35 38° 288° (WNW) 10:51:34 435.000/436.395/437.385
POLYITAN 1 23 Nov 10:53:26 10:56:57 25° 264° (W) 11:00:29 437.675
QB50P2 23 Nov 10:56:52 11:00:15 23° 265° (W) 11:03:40 145.880/145.840
TIGRISAT 23 Nov 10:58:43 11:01:24 16° 267° (W) 11:04:06 435.000
DX 1 23 Nov 11:00:54 11:03:40 17° 295° (WNW) 11:06:25 434.975-435.025
SHINDAISAT 23 Nov 11:03:21 11:04:00 12° 307° (NW) 11:04:39 437.305
ESTCUBE 1 23 Nov 11:03:41 11:08:13 65° 101° (ESE) 11:12:42 437.505/2401.250
DUCHIFAT 1 23 Nov 11:05:19 11:08:23 19° 266° (W) 11:11:26 145.980
UNISAT 6 23 Nov 11:11:57 11:13:29 12° 269° (W) 11:15:01 437.425
VELOX 1 23 Nov 11:16:22 11:20:22 34° 290° (WNW) 11:24:21 145.980
NANOSAT C BR1 23 Nov 11:26:00 11:27:29 12° 269° (W) 11:28:58 145.865
ZACube-1 23 Nov 11:26:39 11:29:18 17° 294° (WNW) 11:31:59 437.345
HUMSAT D 23 Nov 11:32:02 11:35:14 22° 292° (WNW) 11:38:28 437.325/437.525
50 SAT 23 Nov 11:41:05 11:44:04 20° 292° (WNW) 11:47:04 437.505
AISAT 23 Nov 11:41:25 11:44:34 19° 294° (WNW) 11:47:42 437.250
Oscar 19 23 Nov 11:50:46 11:55:12 31° 68° (ENE) 11:59:39 437.125/150
TISAT 1 23 Nov 12:04:08 12:08:22 74° 102° (ESE) 12:12:33 437.305
SPROUT 23 Nov 12:04:34 12:08:50 65° 101° (ESE) 12:13:04 437.525
CUBEBUG 1 23 Nov 12:05:05 12:08:49 28° 291° (WNW) 12:12:30 437.445
SO-50 23 Nov 12:09:32 12:13:46 29° 48° (NE) 12:18:02 436.795
BEESAT 23 Nov 12:13:24 12:15:39 13° 91° (E) 12:17:53 436.000
AUBIESAT-1 23 Nov 12:21:25 12:25:08 21° 98° (E) 12:28:46 437.475
M-CUBED/EXP-1 PRIME 23 Nov 12:24:16 12:28:18 25° 99° (E) 12:32:16 437.505
ITAMSAT 1 23 Nov 12:37:00 12:41:38 34° 68° (ENE) 12:46:17 435.822/435.867
ESTCUBE 1 23 Nov 12:42:30 12:44:32 13° 298° (WNW) 12:46:33 437.505/2401.250
YUBILEINY 23 Nov 12:43:14 12:50:55 33° 71° (ENE) 12:58:31 435.215
Gurwin Techsat 1B 23 Nov 12:52:21 12:56:43 27° 66° (ENE) 13:01:07 435.225
ITUPSAT 1 23 Nov 13:05:20 13:09:58 45° 99° (E) 13:14:33 437.325
CUSAT 1 23 Nov 13:07:24 13:10:18 88° 98° (E) 13:12:55 437.405
SWISSCUBE 23 Nov 13:17:21 13:22:09 67° 102° (ESE) 13:26:54 437.505
DANDE 23 Nov 13:20:20 13:23:22 73° 279° (W) 13:26:01 436.750
KKS-1 23 Nov 13:26:58 13:29:34 15° 92° (E) 13:32:09 437.445
Oscar 19 23 Nov 13:30:00 13:34:28 30° 264° (W) 13:38:58 437.125/150
AO-7 23 Nov 13:36:23 13:42:38 25° 54° (NE) 13:48:53 29.400- 29.500
HORYU 2 23 Nov 13:39:20 13:43:09 29° 69° (ENE) 13:46:59 437.375
SPROUT 23 Nov 13:42:57 13:44:22 11° 297° (WNW) 13:45:46 437.525
BEESAT 23 Nov 13:49:09 13:53:54 63° 286° (WNW) 13:58:37 436.000
SO-50 23 Nov 13:49:54 13:54:24 38° 245° (WSW) 13:58:54 436.795
AUBIESAT-1 23 Nov 13:55:34 14:00:15 45° 293° (WNW) 14:04:51 437.475
M-CUBED/EXP-1 PRIME 23 Nov 13:58:49 14:03:23 39° 295° (WNW) 14:07:54 437.505
ITAMSAT 1 23 Nov 14:16:36 14:21:06 29° 264° (W) 14:25:37 435.822/435.867
STARS 23 Nov 14:27:31 14:31:46 47° 100° (E) 14:36:00 437.465
Gurwin Techsat 1B 23 Nov 14:31:35 14:36:29 38° 262° (W) 14:41:26 435.225
MaSat-1 23 Nov 14:34:47 14:36:13 13° 108° (ESE) 14:37:35 437.345
YUBILEINY 23 Nov 14:39:40 14:48:00 53° 270° (W) 14:56:17 435.215
PHONESAT 2.4 23 Nov 14:41:06 14:43:20 15° 146° (SSE) 14:45:35 2401.200-2431.200
ITUPSAT 1 23 Nov 14:44:06 14:47:30 20° 295° (WNW) 14:50:54 437.325
JAS-2 23 Nov 14:50:53 14:56:24 22° 58° (ENE) 15:02:01 435.910
RS-15 23 Nov 14:51:46 15:00:27 28° 103° (ESE) 15:09:02 29.354- 29.394
SWISSCUBE 23 Nov 14:57:03 14:59:26 14° 298° (WNW) 15:01:48 437.505
KKS-1 23 Nov 15:02:12 15:06:27 47° 288° (WNW) 15:10:41 437.445
VERMONT LUNAR 23 Nov 15:02:44 15:05:52 28° 153° (SSE) 15:09:01 437.305
O/OREOS (USA 219) 23 Nov 15:13:25 15:16:58 23° 58° (ENE) 15:20:31 437.305
HORYU 2 23 Nov 15:16:12 15:19:48 24° 265° (W) 15:23:26 437.375
AO-7 23 Nov 15:26:16 15:34:32 79° 253° (WSW) 15:42:54 29.400- 29.500
MOZHAYETS 4 23 Nov 15:47:54 15:50:25 14° 91° (E) 15:52:54
STARS 23 Nov 16:05:13 16:07:52 16° 296° (WNW) 16:10:31 437.465
MaSat-1 23 Nov 16:08:08 16:10:40 24° 299° (WNW) 16:13:01 437.345
PHONESAT 2.4 23 Nov 16:18:02 16:21:40 56° 161° (SSE) 16:25:20 2401.200-2431.200
JAS-2 23 Nov 16:32:55 16:40:26 83° 257° (WSW) 16:48:22 435.910
Cubesat XI-IV 23 Nov 16:33:46 16:38:25 31° 67° (ENE) 16:43:04 437.490
VERMONT LUNAR 23 Nov 16:40:29 16:44:07 82° 169° (S) 16:47:46 437.305
O/OREOS (USA 219) 23 Nov 16:52:24 16:56:25 34° 255° (WSW) 17:00:27 437.305
RS-15 23 Nov 17:00:41 17:11:39 75° 304° (NW) 17:22:40 29.354- 29.394
CUTE-I 23 Nov 17:15:08 17:20:28 72° 74° (ENE) 17:25:49 437.470
MOZHAYETS 4 23 Nov 17:23:24 17:27:58 55° 286° (WNW) 17:32:30
AO-7 23 Nov 17:24:39 17:28:31 14° 271° (W) 17:32:25 29.400- 29.500
PHONESAT 2.4 23 Nov 17:56:43 18:00:27 81° 358° (N) 18:04:11 2401.200-2431.200
PRISM 23 Nov 17:58:10 18:02:24 66° 102° (ESE) 18:06:35 437.425
Cubesat XI-IV 23 Nov 18:13:35 18:18:24 34° 263° (W) 18:23:15 437.490
VERMONT LUNAR 23 Nov 18:19:02 18:22:40 85° 6° (N) 18:26:19 437.305
JAS-2 23 Nov 18:22:22 18:26:29 15° 275° (W) 18:30:44 435.910
STRAND 1 23 Nov 18:23:22 18:28:13 42° 99° (E) 18:33:01 437.568
GONETS M04 23 Nov 18:32:46 18:40:49 37° 72° (ENE) 18:48:45
HO-68 23 Nov 18:47:25 18:53:22 29° 61° (ENE) 18:59:21 435.675
AIST 1 23 Nov 18:50:37 18:53:42 19° 87° (E) 18:56:47
CUBESAT XI-V 23 Nov 18:57:03 19:01:45 79° 284° (WNW) 19:06:22 437.345
CANX-2 23 Nov 18:57:50 19:00:20 16° 65° (ENE) 19:02:50 2200.000
CUTE-I 23 Nov 18:58:23 19:01:02 14° 270° (W) 19:03:41 437.470
COMPASS 1 23 Nov 19:09:37 19:11:47 14° 65° (ENE) 19:13:56 437.405
DOVE 4 23 Nov 19:14:09 19:16:04 13° 64° (ENE) 19:17:56 437.250
RS-15 23 Nov 19:17:30 19:26:13 26° 332° (NNW) 19:35:05 29.354- 29.394
PCSat 23 Nov 19:22:46 19:27:44 39° 111° (ESE) 19:32:45 145.827
CUTE 1.7 & AOD 2 23 Nov 19:31:22 19:35:08 32° 71° (ENE) 19:38:55 437.475
PHONESAT 2.4 23 Nov 19:35:35 19:39:17 69° 195° (SSW) 19:42:58 2401.200-2431.200
PRISM 23 Nov 19:36:03 19:37:23 11° 298° (WNW) 19:38:42 437.425
GOMX 1 23 Nov 19:41:27 19:45:47 33° 71° (ENE) 19:49:51 467.674
BEESAT 3 23 Nov 19:44:01 19:47:15 23° 112° (ESE) 19:50:31 437.485
UKube-1 23 Nov 19:47:21 19:50:06 17° 65° (ENE) 19:52:52 .
BRITE-PL 23 Nov 19:56:01 20:01:07 65° 75° (ENE) 20:05:50 437.365/2234.400
BEESAT 2 23 Nov 19:56:57 20:00:29 28° 113° (ESE) 20:04:04 435.950
VERMONT LUNAR 23 Nov 19:57:37 20:01:04 42° 202° (SSW) 20:04:31 437.305
Oscar 11 23 Nov 19:59:52 20:03:16 23° 68° (ENE) 20:06:41 145.826/435.025
CUBEBUG 2 23 Nov 20:00:31 20:02:42 14° 65° (ENE) 20:04:51 437.445
STRAND 1 23 Nov 20:03:10 20:07:07 23° 295° (WNW) 20:11:03 437.568
UWE-3 23 Nov 20:06:15 20:08:23 14° 65° (ENE) 20:10:30 435.000/436.395/437.385
SEEDS 23 Nov 20:07:17 20:11:27 74° 76° (ENE) 20:15:39 437.485
CINEMA 3 23 Nov 20:07:20 20:11:01 26° 70° (ENE) 20:14:37 145.822/145.860
DX 1 23 Nov 20:18:48 20:22:49 36° 70° (ENE) 20:26:50 434.975-435.025
AIST 2 23 Nov 20:19:58 20:23:25 25° 112° (ESE) 20:26:56 435.215
AIST 1 23 Nov 20:27:05 20:31:05 34° 283° (WNW) 20:35:08
AAUSAT CUBESAT 2 23 Nov 20:29:24 20:33:33 82° 258° (WSW) 20:37:44 437.432
GONETS M04 23 Nov 20:29:27 20:37:46 48° 272° (W) 20:46:00
CANX-2 23 Nov 20:31:53 20:35:54 44° 261° (W) 20:39:58 2200.000
HO-68 23 Nov 20:33:40 20:40:40 55° 259° (WSW) 20:47:44 435.675
VELOX 1 23 Nov 20:38:18 20:41:26 19° 66° (ENE) 20:44:33 145.980
COMPASS 1 23 Nov 20:43:04 20:47:05 49° 261° (W) 20:51:09 437.405
ZACube-1 23 Nov 20:45:19 20:49:02 31° 71° (ENE) 20:52:43 437.345
DELFI C3 23 Nov 20:47:39 20:51:41 67° 75° (ENE) 20:55:45 145.870
HUMSAT D 23 Nov 20:48:32 20:51:35 20° 68° (ENE) 20:54:38 437.325/437.525
DOVE 4 23 Nov 20:48:41 20:53:23 65° 259° (WSW) 20:57:49 437.250
50 SAT 23 Nov 20:54:37 20:57:30 19° 67° (ENE) 21:00:24 437.505
AISAT 23 Nov 21:01:53 21:05:55 33° 70° (ENE) 21:09:56 437.250
PCSat 23 Nov 21:06:28 21:11:13 31° 309° (NW) 21:16:00 145.827
CUTE 1.7 & AOD 2 23 Nov 21:08:03 21:11:08 20° 266° (W) 21:14:14 437.475
PHONESAT 2.4 23 Nov 21:14:53 21:17:44 21° 211° (SSW) 21:20:33 2401.200-2431.200
GOMX 1 23 Nov 21:19:56 21:23:54 24° 264° (W) 21:27:41 467.674
FUNcube-1 23 Nov 21:20:30 21:24:44 79° 76° (ENE) 21:28:56 145.935
BEESAT 3 23 Nov 21:21:34 21:25:18 33° 309° (NW) 21:29:06 437.485
UKube-1 23 Nov 21:21:44 21:25:54 45° 260° (W) 21:30:06 .
CUBEBUG 1 23 Nov 21:25:08 21:28:27 21° 67° (ENE) 21:31:47 437.445
UNISAT 6 23 Nov 21:26:42 21:28:37 13° 91° (E) 21:30:32 437.425
CUBEBUG 2 23 Nov 21:34:49 21:39:01 51° 260° (W) 21:43:08 437.445
BEESAT 2 23 Nov 21:35:10 21:38:43 27° 311° (NW) 21:42:20 435.950
Oscar 11 23 Nov 21:35:33 21:39:18 29° 264° (W) 21:43:04 145.826/435.025
RS-15 23 Nov 21:36:48 21:44:04 19° 8° (N) 21:51:29 29.354- 29.394
BRITE-PL 23 Nov 21:37:28 21:39:54 13° 268° (W) 21:42:16 437.365/2234.400
VERMONT LUNAR 23 Nov 21:38:23 21:38:58 10° 217° (SW) 21:39:34 437.305
UWE-3 23 Nov 21:40:22 21:44:32 51° 260° (W) 21:48:38 435.000/436.395/437.385
CINEMA 3 23 Nov 21:44:26 21:48:10 26° 264° (W) 21:51:49 145.822/145.860
QB50P1 23 Nov 21:44:42 21:46:32 13° 91° (E) 21:48:21 145.935-145.965
ANTELSAT 23 Nov 21:53:38 21:57:19 25° 96° (E) 22:01:04 437.575/2403.000
DX 1 23 Nov 21:55:59 21:59:09 19° 266° (W) 22:02:20 434.975-435.025
AIST 2 23 Nov 21:58:07 22:01:55 32° 309° (NW) 22:05:48 435.215
ESTCUBE 1 23 Nov 22:02:48 22:07:14 55° 73° (ENE) 22:11:42 437.505/2401.250
BUGSAT 1 23 Nov 22:07:43 22:10:36 18° 94° (E) 22:13:26 437.445
POPSAT HIP 1 23 Nov 22:07:50 22:11:14 23° 95° (E) 22:14:36 437.405
VELOX 1 23 Nov 22:13:29 22:17:43 41° 261° (W) 22:21:57 145.980
ZACube-1 23 Nov 22:22:15 22:25:27 21° 266° (W) 22:28:37 437.345
HUMSAT D 23 Nov 22:23:30 22:27:12 31° 263° (W) 22:30:54 437.325/437.525
50 SAT 23 Nov 22:29:00 22:32:37 31° 263° (W) 22:36:15 437.505
AISAT 23 Nov 22:39:06 22:42:35 22° 265° (W) 22:46:05 437.250
POLYITAN 1 23 Nov 22:39:15 22:43:25 55° 100° (E) 22:47:33 437.675
QB50P2 23 Nov 22:42:17 22:46:29 60° 101° (E) 22:50:39 145.880/145.840
TIGRISAT 23 Nov 22:49:03 22:53:28 80° 284° (WNW) 22:57:57 435.000
DUCHIFAT 1 23 Nov 22:49:58 22:54:11 73° 102° (ESE) 22:58:23 145.980
TISAT 1 23 Nov 22:56:09 23:00:18 51° 73° (ENE) 23:04:27 437.305
SPROUT 23 Nov 22:58:16 23:02:23 46° 73° (ENE) 23:06:32 437.525
CUBEBUG 1 23 Nov 23:00:31 23:04:36 35° 262° (W) 23:08:42 437.445
UNISAT 6 23 Nov 23:01:23 23:05:43 58° 286° (WNW) 23:10:09 437.425
